パンスターズ彗星

P/2019 A7 ( PanSTARRS )

English version
Home page
Updated on May 20, 2019

---------------------------------------------------------------------

・ プロフィール

発見日 2019年1月8日
発見光度 20.4等
発見者 Pan-STARRS 1 telescope (Haleakala)

・ 写真集

・ 軌道要素

Epoch 2018 Jan. 2.0 TT = JDT 2458120.5
T 2018 Jan. 8.33078 TT                                  MPCW
q   2.6760274            (2000.0)            P               Q
n   0.17309685     Peri.  119.60863     +0.72375338     -0.62139947
a   3.1886727      Node   280.52535     +0.47888354     +0.76538488
e   0.1607708      Incl.   17.77070     +0.49684163     +0.16747740
P   5.69
From 89 observations 2017 Oct. 1-2019 Feb. 11, mean residual 0".4.

・ 光度変化

        m1 = 14.0 + 5 logΔ + 10.0 log r

---------------------------------------------------------------------

軌道要素はM.P.E.C. 2019-J142に掲載されたものです。
光度グラフはComet for Windowsで作成したものです。

---------------------------------------------------------------------

Copyright(C) Seiichi Yoshida (comet@aerith.net). All rights reserved.